Home > Time Zones > World Clock > Weather > China > Wuhan > Past weeks

Flag for China Weather past 2 weeks in Wuhan, Hubei, China

Now
68 °F

Light rain. Fog.


Feels Like: 68 °F
Forecast: 57 / 69 °F
Wind: 6 mph from East

Location: Wuhan Airport

Current Time: Apr 18, 2015 at 9:21:49 PM

Latest Report: Apr 18, 2015 at 8:00 PM


Visibility: 1 mi

Pressure: 29.68 "Hg

Humidity: 94%

Dew point: 66 °F

Location of WuhanLocation

Historic Weather in Wuhan — Graph

°F

Wuhan temperature yesterday

Maximum temperature yesterday: 77 °F (at 12:00 PM)
Minimum temperature yesterday: 64 °F (at 1:00 AM)
Average temperature yesterday: 71 °F

Past Weeks' High & Low Weather Summary

 TemperatureHumidityPressure
High79 °F (Apr 16, 2:00 PM)100% (Apr 3, 11:00 PM)30.45 "Hg (Apr 3, 11:00 PM)
Low37 °F (Apr 8, 5:00 AM)25% (Apr 11, 5:00 PM)29.62 "Hg (Apr 3, 8:00 PM)
Average58 °F74%30.04 "Hg
* Reported Apr 3 8:00 PM — Apr 18 8:00 PM, Wuhan, Weather by CustomWeather, © 2015

Note: Actual official high and low records may vary slightly from our data, if they occured in-between our weather recording intervals... More about our weather records

Advertising

Wuhan weather history for previous 24 hours

 ConditionsComfort  
Time TempWeatherWind HumidityBarometerVisibility
8:00 PM
Sat, Apr 18
68 °FLight rain. Fog.6 mph94%29.68 "Hg1 mi
7:00 PM68 °FLight rain. Fog.3 mph94%29.65 "Hg1 mi
6:00 PM68 °FLight rain. Fog.8 mph94%29.65 "Hg1 mi
5:00 PM70 °FLight rain. Fog.3 mph88%29.62 "Hg1 mi
4:00 PM70 °FLight rain. Fog.No wind88%29.62 "Hg1 mi
3:00 PM73 °FFog.3 mph78%29.62 "Hg2 mi
2:00 PM75 °FScattered clouds.1 mph69%29.65 "Hg2 mi
1:00 PM77 °FHaze.3 mph65%29.65 "Hg3 mi
12:00 PM77 °FHaze.6 mph65%29.65 "Hg2 mi
11:00 AM77 °FHaze.8 mph65%29.68 "Hg3 mi
10:00 AM73 °FClear.8 mph74%29.68 "Hg4 mi
9:00 AM72 °FClear.10 mph73%29.68 "Hg4 mi
8:00 AM70 °FFog.8 mph78%29.65 "Hg3 mi
7:00 AM68 °FFog.13 mph83%29.65 "Hg3 mi
6:00 AM68 °FLight rain. Scattered clouds.10 mph83%29.65 "Hg4 mi
5:00 AM70 °FClear.10 mph73%29.62 "Hg4 mi
4:00 AM70 °FClear.13 mph78%29.62 "Hg4 mi
3:00 AM70 °FClear.13 mph78%29.65 "Hg4 mi
2:00 AM70 °FClear.8 mph78%29.65 "Hg4 mi
1:00 AM73 °FClear.10 mph65%29.65 "Hg4 mi
12:00 AM73 °FClear.13 mph69%29.68 "Hg4 mi
11:00 PM
Fri, Apr 17
73 °FClear.13 mph69%29.68 "Hg4 mi
10:00 PM73 °FClear.8 mph69%29.71 "Hg4 mi
9:00 PM73 °FClear.8 mph69%29.68 "Hg4 mi
Weather by CustomWeather, © 2015

See weather overviewHow to use our weather pages